www.pogodaiklimat.ru

Погода и климат >> Архив погоды >> Парагвай >> Encarnacion


ПОГОДА в Encarnacion

  • Прогноз погоды в Encarnacion
  • Монитор погоды в Encarnacion
  • Климат города

АРХИВ ПОГОДЫ в Encarnacion

Время (UTC), дата Ветер
(напр.,м/с)
 
Видим.   Явления Облачность Т
(С)
Тd
(С)
f
(%)
Тe
(С)
Тes
(С)
Комфортность P
(гПа)
Po
(гПа)
Тmin
(С)
Tmax
(С)
R
(мм)
R24
(мм)
S
(см)
00 12.08 В 2 20 км ясно +16.0 +8.1 59 +16 +16 1022.0 998.0 +21.0
03 12.08 ЮВ 3 20 км ясно +13.4 +8.6 73 +12 +12 1021.6 997.3
09 12.08 ЮВ 3 20 км ясно +9.0 +6.8 86 +7 +7 1019.4 994.9
12 12.08 СВ 3 20 км ясно +12.6 +4.2 57 +12 +14 1020.2 995.9 +9.0
15 12.08 В 3 20 км ясно +19.0 +9.5 54 +20 +31 1020.9 997.1
18 12.08 СВ 3 20 км ясно +24.0 +9.2 39 +25 +31 комфорт 1018.6 995.3
21 12.08 В 3 20 км ясно +24.4 +11.8 45 +26 +26 жарко 1017.4 994.1
00 13.08 СВ 3 20 км ясно +18.0 +10.5 62 +18 +18 1017.8 994.1 +26.0
03 13.08 В 3 20 км ясно +16.8 +9.9 64 +17 +17 1016.6 992.6
09 13.08 СВ 5 20 км ясно +13.2 +10.9 86 +11 +11 1015.0 990.9
12 13.08 СВ 6 20 км ясно +15.8 +10.1 69 +14 +16 1016.4 992.5 +12.5
15 13.08 СВ 8 20 км ясно +24.0 +11.6 46 +26 +28 жарко 1015.9 992.7
18 13.08 В 8 20 км ясно +28.8 +9.4 30 +29 +30 жарко 1013.0 990.2
21 13.08 СВ 4 20 км ясно +26.4 +11.7 40 +28 +28 жарко 1012.4 989.4
00 14.08 СВ 6 20 км ясно +21.8 +11.7 53 +24 +24 комфорт 1013.5 990.1 +29.4
09 14.08 СВ 2 20 км 4/0
[Ci]
+16.6 +11.8 73 +17 +17 1015.0 991.2
12 14.08 СВ 5 20 км 8/0
[Cs]
+17.8 +10.7 63 +17 +19 1016.7 993.0 +15.8
15 14.08 ЮЗ 3 20 км 9/3 900 м
[Sc Cs]
+20.6 +5.6 37 +22 +27 комфорт 1018.9 995.3
18 14.08 З 8 20 км 10/4 600 м
[Sc Ac As]
+23.0 +8.2 39 +24 +24 комфорт 1018.1 994.8
21 14.08 ЮЗ 6 20 км 10/5 600 м
[Sc Ac As]
+19.8 +15.0 74 +22 +22 комфорт 1018.9 995.2
00 15.08 Ю 6 20 км 10/5 750 м
[Sc Ac As]
+18.0 +14.2 78 +17 +17 1019.3 995.5 +25.0
03 15.08 Ю 5 20 км 10/0 1500 м
[Ac As]
+16.0 +12.3 79 +15 +15 1020.6 996.6
06 15.08 Ю 3 20 км 10/0 1500 м
[Ac As]
+14.2 +12.1 87 +13 +13 1020.4 996.2
09 15.08 Ю 2 20 км 10/0 200 м
[Ac As]
+14.0 +10.1 77 +13 +13 1020.8 996.6
12 15.08 Ю 3 20 км {морось} 8/4 600 м
[Sc Ac As]
+12.6 +11.4 92 +11 +12 1021.9 997.7 +12.0 0.0
15 15.08 ЮВ 3 20 км 8/0
[Ci]
+17.0 +11.5 70 +17 +26 1023.0 999.1
18 15.08 ЮВ 3 20 км 8/0 2000 м
[Ac und Ci]
+20.0 +11.2 57 +22 +26 комфорт 1021.1 997.4
21 15.08 Ю 5 20 км 8/0 2000 м
[Ac und Ci]
+19.4 +13.4 68 +21 +21 комфорт 1021.4 997.6
00 16.08 ЮВ 3 20 км ясно +17.0 +13.4 79 +17 +17 1022.5 998.6 +21.0
03 16.08 Ю 5 20 км 10/0
[Ac As]
+16.0 +12.3 79 +15 +15 1020.6 996.6
06 16.08 Ю 3 20 км ясно +12.0 +9.8 86 +10 +10 1022.6 998.4
09 16.08 Ю 3 20 км 8/0
[Ci]
+9.8 +8.7 93 +7 +7 1022.4 998.0
12 16.08 ЮВ 3 5000 м дымка 5/0
[Cs]
+13.0 +11.1 88 +12 +15 1022.5 998.5 +9.0
15 16.08 ЮВ 2 20 км 4/0
[Cs]
+22.0 +15.3 66 +26 +38 душно 1022.0 998.6
18 16.08 Ю 2 20 км 6/0
[Cs]
+23.4 +13.9 55 +27 +35 душно 1021.6 998.2
21 16.08 Ю 2 20 км 8/0
[Cs]
+23.6 +14.1 55 +26 +26 жарко 1021.1 997.9
00 17.08 ЮЗ 2 20 км ясно +18.0 +14.5 80 +19 +19 1022.2 998.6 +24.0
03 17.08 Ю 2 20 км ясно +15.0 +12.1 83 +15 +15 1022.9 999.1
06 17.08 штиль 0 20 км ясно +15.0 +13.2 89 +15 +15 1023.0 999.0
09 17.08 СВ 3 20 км ясно +16.8 +12.0 73 +17 +17 1023.3 999.3
15 17.08 СВ 5 20 км ясно +23.2 +18.1 73 +29 +35 душно 1023.3 999.7
18 17.08 СВ 5 20 км ясно +25.8 +16.5 56 +29 +34 душно 1021.5 998.0
21 17.08 СВ 4 20 км ясно +25.0 +17.2 62 +29 +29 душно 1020.6 997.0
00 18.08 штиль 0 20 км ясно +20.8 +18.1 85 +25 +25 комфорт 1020.1 996.5 +26.4
03 18.08 штиль 0 20 км ясно +19.0 +15.6 81 +20 +20 1019.5 996.1
09 18.08 СВ 3 20 км ясно +16.8 +11.8 72 +17 +17 1019.4 995.5
12 18.08 СВ 6 20 км ясно +17.0 +11.6 70 +16 +17 1019.1 995.5 +16.2
15 18.08 СВ 6 20 км ясно +24.2 +15.7 59 +27 +32 жарко 1018.4 995.1
18 18.08 СВ 6 20 км 4/0
[Ci fib]
+28.0 +14.9 45 +31 +34 душно 1015.6 992.7
21 18.08 СВ 4 20 км 4/0
[Ac trans]
+27.0 +15.8 50 +30 +30 душно 1015.6 992.7

 

Местоположение метеостанции Encarnacion (Парагвай): широта -27.31 долгота -55.83 высота над уровнем моря 91 м.

В архиве по умолчанию представлена погода в Encarnacion за последнюю неделю. Архивные данные за месяц целиком и за предыдущие месяцы, начиная с января 2011 года, Вы можете получить, выбрав интересующий диапазон дат из раскрывающегося списка и нажав кнопку "Ввод!".


*Определитесь, кто Вы:
робот инопланетянин человек

Внимание! Время в таблицах - всемирное. Для получения местного времени необходимо прибавить поправку, которая в Encarnacion равна -4 ч.

Смотрите также архив погоды в соседних городах и на ближайших метеорологических станциях:

Погода в Posadas (Аргентина) (14 км)
Погода в Capitan Meza (Парагвай) (75 км)
Погода в Caazapa (Парагвай) (136 км)
Погода в Sao Luiz Gonzaga (Бразилия) (146 км)
Погода в Santa Rosa (Бразилия) (147 км)
Погода в San Juan Bautista Misiones (Парагвай) (149 км)
Погода в Sao Luiz Gonzaga (Бразилия) (150 км)
Погода в Sao Borja (Бразилия) (150 км)
Погода в Quyquyhat (Парагвай) (167 км)
Погода в Villarrica (Парагвай) (183 км)

Пояснения к столбцам:

Ветер - указаны скорость ветра в м/с - средняя за 10 мин, порывы в срок и между сроками (в фигурных скобках) и направление, откуда дует ветер: С - северный, СВ - северо-восточный, В - восточный, ЮВ - юго-восточный, Ю - южный, ЮЗ - юго-западный, З - западный, СЗ - северо-западный.
Видимость - горизонтальная дальность видимости в метрах или километрах. При видимости от 1 до 10 км при отсутствии осадков обычно наблюдается дымка, при ухудшении видимости до 1 км и менее - туман. В сухую погоду видимость может ухудшаться дымом, пылью или мглою.
Явления - указаны атмосферные явления, наблюдавшиеся в срок или в последний час перед сроком; фигурными скобками обозначены явления, наблюдавшиеся между сроками (за 1-3 часа до срока); квадратными скобками обозначены град или гололедные отложения с указанием их диаметра в мм.
Облачность - указаны через наклонную черту общая и нижняя облачность в баллах и высота нижней границы облаков в метрах; квадратными скобками обозначены формы облаков: Ci - перистые, Cs - перисто-слоистые, Cc - перисто-кучевые, Ac - высококучевые, As - высокослоистые, Sc - слоисто-кучевые, Ns - слоисто-дождевые, Cu - кучевые, Cb - кучево-дождевые. Подробнее классификацию облаков см. в Атласе облаков (PDF).
T - Температура воздуха - температура, измеренная на высоте 2 м над землей.
Td - Температура точки росы - температура, при понижении до которой содержащийся в воздухе водяной пар достигнет насыщения.
f - Относительная влажность воздуха - влажноcть воздуха, измеренная на высоте 2 м над землей.
Te - Эффективная температура - температура, которую ощущает одетый по сезону человек в тени. Характеристика душности погоды. При расчете учитывается влияние влажности воздуха и скорости ветра на теплоощущения человека.
Tes - Эффективная температура на солнце - температура, которую ощущает человек, с поправкой на солнечный нагрев. Характеристика знойности погоды. Зависит от высоты солнца над горизонтом, облачности и скорости ветра. Ночью, в пасмурную погоду, а также при ветре 12 м/с и более поправка равна нулю.
P - Атмосферное давление - приведенное к уровню моря атмосферное давление.
Po - Атмосферное давление - измеренное на уровне метеостанции атмосферное давление.
Tmin - Минимальная температура - минимум температуры воздуха на высоте 2 м над землей.
Tmax - Максимальная температура - максимум температуры воздуха на высоте 2 м над землей.
R - Количество осадков - Количество выпавших осадков за период времени, мм. При наведении курсора мыши на число - период времени, за который выпало указанное количество осадков.
R24 - Количество осадков - Количество выпавших осадков за 24 часа, мм.
S - Снежный покров - Высота снежного покрова, см. При наведении курсора мыши на число - состояние снежного покрова и степень покрытия местности в баллах.